Simultaneous Nadir Overpasses (SNOs) Predictions

Prediction of SNOs between AQUA and NPP Satellite Orbit:

Table of predicted SNOs for the next 14.0 days since TLE Epoch: 7/27/2024
Index Date (AQUA) Time (AQUA) Lat,Lon (AQUA) SZA (AQUA ) Date (NPP) Time (NPP) Lat,Lon (NPP) SZA (NPP ) Distance(km) Time Diff (sec)
1 07/28/2024 19:45:54 -81.27, -11.57 110.51 07/28/2024 19:44:47 -81.27, -11.53 110.48 0.75 67
2 07/28/2024 20:35:15 81.27, 156.09 69.50 07/28/2024 20:35:31 81.27, 156.21 69.47 2.05 16
3 07/31/2024 07:49:10 81.27, -12.39 70.09 07/31/2024 07:48:00 81.26, -12.54 70.16 2.41 70
4 07/31/2024 08:38:32 -81.27, 155.37 109.92 07/31/2024 08:38:43 -81.28, 155.53 109.95 2.90 11
5 08/02/2024 19:52:31 -81.16, -15.08 109.03 08/02/2024 19:51:17 -81.23, -15.17 108.96 7.15 74
6 08/02/2024 20:41:46 81.28, 154.80 70.68 08/02/2024 20:41:55 81.28, 154.82 70.67 0.53 9
7 08/05/2024 08:45:01 -81.27, 153.90 108.66 08/05/2024 08:45:08 -81.27, 153.71 108.64 3.23 7



Historial Predications of SNOs between AQUA and NPP
